Tracking 30160 objects as of 13-Feb-2025
HD Live streaming from Space Station
objects crossing your sky now

ATLAS 5 CENTAUR DEB

Track ATLAS 5 CENTAUR DEB now!


NORAD ID: 52943
Int'l Code: 2022-073D
Perigee: 36,225.4 km
Apogee: 36,270.3 km
Inclination: 2.5 °
Period: 1,459.4 minutes
Semi major axis: 42618 km
RCS: Unknown
Launch date: July 1, 2022
Source: United States (US)
Launch site: AIR FORCE EASTERN TEST RANGE (AFETR)

Note: This is SATELLITE DEBRIS
Your satellite tracking list
Your tracking list is empty




NASA's NSSDC Master Catalog

Two Line Element Set (TLE):
1 52943U 22073D   25043.85926913 -.00000206  00000-0  00000-0 0  9993
2 52943   2.4785  85.1751 0005268  33.0554 327.2433  0.98673373  6803
Source of the keplerian elements: AFSPC